Location: Roanoke
(37.2710°N, 79.9420°W)
Time: 02:48:17
(UTC-05:00)

S-56A Canister/Altair - Pass Details

Date: 22 November 2019
Orbit: 633 x 2499 km, 38.9° (Epoch: 06 December)

Event Time Altitude Azimuth Distance (km) Brightness Sun altitude
Rises 22:56:10 0° 277° (W) 3,517 - -67.2°
Reaches altitude 10° 23:00:25 10° 250° (WSW) 2,282 - -67.8°
Maximum altitude 23:02:37 13° 224° (SW) 1,986 - -68.1°
Drops below altitude 10° 23:04:38 10° 198° (SSW) 2,078 - -68.4°
Sets 23:08:07 0° 168° (SSE) 2,906 - -68.8°
